Regional Weather Roundup
Issued by NWS Glasgow, MT

Home | Current Version | Previous Version | Text Only | Print | Product List | Glossary On
Versions: 1 2 3 4 5 6 7 8 9 10 11 12 13 14 15 16 17 18 19 20 21 22 23 24 25 26 27 28 29 30 31 32 33 34 35 36 37 38 39 40 41 42 43 44 45 46 47 48 49 50
045
ASUS45 KGGW 230115
RWRGGW
HOURLY REGIONAL WEATHER ROUNDUP FOR NORTHEAST MONTANA
NATIONAL WEATHER SERVICE GLASGOW MONTANA
700 PM MDT FRI SEP 22 2017

NOTE: "FAIR" INDICATES FEW OR NO CLOUDS BELOW 12,000 FEET WITH NO
SIGNIFICANT WEATHER AND/OR OBSTRUCTIONS TO VISISBILITY.

NORTHEAST MONTANA


CITY           SKY/WX    TMP DP  RH WIND       PRES   REMARKS
GLASGOW        CLOUDY    47  39  74 NE5       30.06S
WOLF POINT     CLOUDY    47  39  74 N5        30.08R
JORDAN           N/A     44  39  82 E5        30.06R
WINNETT          N/A     41  37  86 NE3         N/A
SIDNEY         CLOUDY    46  41  82 N10       30.03F
GLENDIVE       CLOUDY    44  38  79 N12       30.04F
SCOBEY           N/A     41  34  76 CALM      30.04R

FORT PECK REPORTS


CITY           SKY/WX    TMP DP  RH WIND       PRES   REMARKS
FORT PECK        N/A     46  40  79 N2          N/A
THE PINES        N/A     45  37  73 N3          N/A

SOUTHEAST MONTANA


CITY           SKY/WX    TMP DP  RH WIND       PRES   REMARKS
BILLINGS       CLOUDY    40  39  97 NE10      30.04R FOG
MILES CITY     CLOUDY    46  35  65 NE9       30.06R
BAKER          CLOUDY    45  36  70 N9        30.03R
LIVINGSTON     CLOUDY    37  33  85 E15       30.01R

CENTRAL MONTANA


CITY           SKY/WX    TMP DP  RH WIND       PRES   REMARKS
HAVRE          CLOUDY    47  33  58 CALM      30.07S
LEWISTOWN      CLOUDY    37  36  96 SE6       30.05S
GREAT FALLS    LGT RAIN  37  34  89 NE5       30.08S
CUT BANK       LGT RAIN  38  33  82 S6        30.08R
HELENA         CLOUDY    38  36  92 W8        30.05R
BUTTE          CLOUDY    34  32  92 W7        30.00S
BOZEMAN        CLOUDY    40  35  83 W6        30.01R

WESTERN MONTANA


CITY           SKY/WX    TMP DP  RH WIND       PRES   REMARKS
MISSOULA       MOCLDY    44  34  67 E12       30.04R
KALISPELL      NOT AVBL

NORTH DAKOTA


CITY           SKY/WX    TMP DP  RH WIND       PRES   REMARKS
WILLISTON      CLOUDY    47  42  83 N10       30.05R
DICKINSON      NOT AVBL
MINOT          CLOUDY    49  44  83 NW15      29.95S
BISMARCK       CLOUDY    49  47  93 N16G24    29.91R

SOUTHERN SASKATCHEWAN


CITY           SKY/WX    TMP DP  RH WIND       PRES   REMARKS
REGINA         CLOUDY    45  41  87 NW8       30.07R
ESTEVAN        LGT RAIN  45  45 100 N7        30.03R
SWIFT CURRENT  CLOUDY    45  34  65 N8        30.05S





USA.gov is the U.S. government's official web portal to all federal, state and local government web resources and services.